Location: Co?evi?a
(45.8833°N, 22.3833°E)
Time: 11:10:09
(UTC+00:00)

Daily predictions for brighter satellites

Satellite Brightness Start Highest point End
(mag) Time Altitude Azimuth Time Altitude Azimuth Time Altitude Azimuth
Tsikada Rocket 4.1 18:32:09 10° S 18:38:11 58° E 18:44:20 10° NNE
Cosmos 1943 Rocket 4.2 18:35:26 10° NW 18:39:59 26° WSW 18:44:30 10° SSW
Cosmos 1933 4.5 18:38:06 10° SSW 18:41:55 47° WNW 18:45:47 10° N
Cosmos 1378 3.4 18:39:15 10° SSW 18:42:29 62° W 18:45:45 10° N
Cosmos 1943 3.7 18:38:22 10° S 18:43:36 40° ESE 18:48:51 10° NE
PSLV R/B 4.1 18:41:12 10° S 18:44:54 63° WSW 18:48:34 10° NNW
Cosmos 1726 3.4 18:44:07 10° NNE 18:46:27 19° ENE 18:48:45 10° ESE
DELTA 2 DEB (DPAF) 4.4 18:44:38 10° N 18:48:52 70° WNW 18:53:04 10° SSW
USA 306 3.4 18:46:34 10° NW 18:50:10 45° NNE 18:53:56 10° E
Cosmos 1842 Rocket 4.3 18:46:24 10° SSE 18:50:23 34° E 18:54:21 10° NNE
Okean 3 Rocket 4.3 18:47:25 10° N 18:51:31 38° ENE 18:55:35 10° SE
Resurs 01 Rocket 2.6 18:48:23 10° S 18:52:39 47° W 18:56:57 10° NNW
USA 276 2.8 18:55:20 10° W 18:57:11 24° SSW 18:58:56 11° SSE
ISS -3.7 18:54:26 10° WNW 18:57:48 83° NNE 19:01:04 11° ESE
ATLAS 3B R/B 3.9 18:54:02 10° NW 19:01:22 44° WSW 19:08:32 10° S
Cosmos 2292 Rocket 4.2 18:56:29 10° S 19:02:58 86° E 19:07:54 10° N
Okean O Rocket 2.7 18:58:48 10° S 19:03:01 43° W 19:07:16 10° NNW
USA 281 4.4 18:57:27 10° ESE 19:03:03 31° NE 19:08:40 10° N
CZ-4 R/B 4.1 19:03:18 10° SW 19:05:27 15° W 19:07:39 10° NW
Cosmos 2221 2.9 19:02:59 10° SSW 19:07:17 68° W 19:11:36 10° N
MetOp-B 4.2 19:06:03 10° SSE 19:11:23 81° ENE 19:16:47 10° NNW
Ariane Rocket 3.7 19:08:13 12° SE 19:12:35 40° ENE 19:17:20 10° N
Cosmos 1766 Rocket 3.9 19:10:28 10° NNW 19:14:54 69° W 19:19:19 10° S
Terra 2.0 19:20:54 14° SSE 19:24:51 58° ENE 19:29:29 10° N
Cosmos 1452 Rocket 3.5 19:21:33 10° NNW 19:26:49 79° ENE 19:31:08 15° SSE
USA 32 4.2 19:21:41 10° S 19:26:54 75° W 19:32:09 10° N
MOS 1 Rocket 4.1 19:22:52 15° SE 19:26:54 45° ENE 19:31:59 10° N
Cosmos 921 Rocket 4.4 19:25:01 10° SW 19:29:16 42° WNW 19:33:33 10° N
Lacrosse 5 4.3 19:27:48 10° W 19:29:45 12° WSW 19:31:42 10° SW
Cosmos 1340 Rocket 4.0 19:28:03 17° SE 19:30:03 26° E 19:33:24 10° NE
Cosmos 468 4.5 19:25:12 10° S 19:30:21 68° ESE 19:35:33 10° NNE
Centaur D AC-29 4.2 19:30:45 10° SSW 19:36:04 23° SE 19:52:12 10° ESE
Lacrosse 5 rocket 4.2 19:33:34 10° WNW 19:36:43 20° N 19:39:49 10° NE
ERS-1 Rocket 3.0 19:32:31 14° SSE 19:36:54 88° ENE 19:41:58 10° NNW
Meteor 2-10 4.4 19:34:08 10° N 19:39:32 53° ENE 19:43:13 19° SE
Cosmos 2279 Rocket 4.0 19:34:30 10° N 19:40:45 90° ESE 19:46:19 13° S
Cosmos 1408 Rocket 3.6 19:36:38 10° N 19:41:07 72° E 19:44:15 19° SSE
Nadezhda 4 Rocket 4.4 19:36:46 16° SSE 19:41:27 45° E 19:47:21 10° NNE
Cosmos 1743 4.4 19:40:29 10° NNW 19:43:37 28° W 19:46:44 10° SSW
USA 245 2.2 19:44:58 31° S 19:45:50 61° WSW 19:48:10 10° NNW
SL-8 R/B 3.9 19:41:14 10° W 19:45:59 73° NNW 19:50:45 10° ENE
Okean-O 4.3 19:43:30 10° SSW 19:47:19 29° W 19:51:10 10° NW
Meteor 1-10 Rocket 4.2 19:44:14 10° S 19:49:58 89° WNW 19:55:38 10° N
Meteor 1-19 Rocket 4.4 19:46:19 14° S 19:51:18 60° E 19:56:56 10° NNE
Cosmos 1626 4.2 19:51:48 10° E 19:51:48 10° E 19:52:15 10° ENE
SPOT 5 3.8 19:47:58 10° SSW 19:52:15 40° W 19:56:25 10° NNW
Cosmos 1603 3.7 19:47:40 10° SSW 19:53:20 88° ESE 19:59:05 10° NNE
Cosmos 2369 Rocket 3.7 19:52:45 10° NW 19:57:31 29° WSW 20:02:16 10° SSW
BREEZE-M DEB (TANK) 4.3 19:59:04 22° SE 19:59:58 22° ESE 20:07:06 10° ENE
Meteor 1-11 Rocket 3.8 19:55:01 10° NNW 20:00:43 80° W 20:05:04 18° S
Okean 1 3.2 19:58:58 17° S 20:01:48 83° W 20:05:43 10° N
Meteor 2-17 Rocket 4.5 19:57:45 18° S 20:02:17 63° E 20:08:15 10° NNE
Cosmos 1151 Rocket 3.4 20:00:26 26° SSE 20:02:29 47° E 20:06:39 10° NNE
Cosmos 1975 3.9 20:03:12 10° N 20:06:43 30° ENE 20:07:58 25° ESE
Cosmos 1302 Rocket 4.0 20:04:25 10° NNW 20:09:39 77° ENE 20:12:31 27° SSE
Landsat 4 4.4 20:08:05 21° SSW 20:10:04 42° W 20:13:25 10° NNW
Cosmos 1656 4.5 20:08:22 10° NNW 20:13:31 40° NE 20:16:41 21° ESE
Cosmos 1536 3.7 20:11:43 10° NNW 20:15:25 42° W 20:17:51 19° SSW
Cosmos 1500 Rocket 3.7 20:11:39 10° NNW 20:15:56 65° W 20:18:19 25° S
Cosmos 1726 3.9 20:17:09 10° NW 20:19:33 20° W 20:21:30 12° SW
Cosmos 2026 Rocket 4.4 20:17:40 26° SSE 20:20:57 48° E 20:26:54 10° NNE
NOSS 3-3 (A) 4.2 20:20:45 28° SSE 20:22:52 39° ESE 20:28:30 10° NE
USA 306 3.3 20:20:15 10° WNW 20:23:53 39° SW 20:24:42 34° S
USA 59 Rocket 0.3 20:20:07 10° NW 20:24:03 70° NE 20:26:33 30° SE
Lacrosse 4 Rocket 2.2 20:20:58 10° NNW 20:24:50 39° NE 20:26:31 27° ESE
Cosmos 1805 3.1 20:22:23 10° N 20:26:05 65° E 20:27:02 45° SE
NOSS 2-1 (E) 3.7 20:22:10 10° NW 20:26:08 73° NE 20:28:34 30° SE
Cosmos 1805 Rocket 3.9 20:22:08 10° NNW 20:26:29 62° W 20:28:43 27° SSW
H-2A R/B 4.2 20:26:16 18° E 20:27:48 21° ENE 20:31:01 10° NNE
Cosmos 1733 3.4 20:24:37 10° NNW 20:28:04 55° W 20:29:15 34° SSW
Spot 2 Rocket 4.4 20:25:05 18° SSW 20:28:31 42° W 20:33:18 10° NNW
BREEZE-M DEB (TANK) 3.2 20:16:27 10° SW 20:28:41 70° SSE 20:32:02 10° ENE
Cosmos 1633 Rocket 3.6 20:28:55 10° N 20:33:09 44° ENE 20:34:27 34° ESE
ISS -1.7 20:31:55 10° W 20:33:56 17° SW 20:33:56 17° SW
Cosmos 1666 Rocket 3.7 20:30:58 10° N 20:35:13 55° ENE 20:36:28 40° SE
IRIDIUM 114 4.4 20:30:37 10° N 20:35:50 67° E 20:38:00 35° SSE
Landsat 5 3.5 20:32:32 10° N 20:36:17 63° WNW 20:38:13 27° SSW
NOSS 2-1 (D) 3.6 20:34:47 10° NW 20:38:45 85° SW 20:40:43 37° SSE
Cosmos 1340 3.3 20:37:56 10° NNW 20:41:10 41° W 20:42:01 34° SW
Sich 1 4.0 20:38:38 10° NNW 20:42:44 40° W 20:44:55 23° SSW
Cosmos 1818 3.6 20:40:46 28° S 20:43:31 59° ESE 20:48:55 10° NE
Cosmos 220 Rocket 3.9 20:41:53 35° SSW 20:43:41 85° ESE 20:48:01 10° NNE
CZ-2C R/B 4.0 20:40:13 10° NNE 20:44:35 48° E 20:45:29 41° SE
IRIDIUM 103 4.3 20:39:44 10° N 20:44:59 80° E 20:47:09 36° S
Meteor 1-27 Rocket 4.5 20:40:55 11° SSW 20:45:58 49° WNW 20:51:22 10° N
USA 281 3.4 20:43:30 28° S 20:47:08 65° WSW 20:53:43 10° NNW
ALOS 2 4.4 20:48:58 17° E 20:50:30 21° ENE 20:53:45 10° NNE
Cosmos 1697 Rocket 3.8 20:45:33 10° NNW 20:50:41 35° NE 20:53:45 20° ESE
Cosmos 1553 Rocket 4.4 20:46:55 10° N 20:52:46 47° ENE 20:55:18 31° SE
NOSS 3-3 (C) 3.7 20:50:46 31° S 20:53:22 61° ESE 20:59:31 10° NE
Meteor 2-4 Rocket 3.8 20:51:17 29° S 20:54:28 89° E 21:00:27 10° N
MetOp-A 4.5 20:53:25 30° SSW 20:55:20 47° W 21:00:05 10° NNW
GEOS 3 Rocket 3.8 20:52:02 10° NE 20:57:12 72° NW 21:02:17 10° SW
Cosmos 1980 Rocket 4.1 20:54:15 10° N 20:58:41 23° NE 21:02:54 11° E
Cosmos 1066 Rocket 4.4 21:00:02 38° SSE 21:02:09 60° E 21:07:56 10° NNE
Terra 4.0 20:59:44 10° SW 21:02:48 17° W 21:05:54 10° NW
IRIDIUM 106 4.4 20:58:04 10° N 21:03:17 72° W 21:05:25 36° SSW
Cosmos 1674 3.7 21:03:52 29° ENE 21:03:52 29° ENE 21:06:28 10° NNE
Cosmos 1092 Rocket 4.1 21:08:35 28° SSW 21:12:04 74° W 21:18:25 10° N
MINOTAUR 4 R/B 4.1 21:10:00 10° NNE 21:12:28 58° N 21:12:28 58° N
ARIANE 5 R/B 2.5 21:12:44 57° S 21:13:37 85° WSW 21:17:57 10° NNW
NOSS 2-1 (C) 4.3 21:11:22 10° NW 21:15:17 44° SW 21:16:11 39° SSW
Lacrosse 5 rocket 3.9 21:13:08 10° NW 21:16:18 20° NNE 21:19:24 10° ENE
Cosmos 1269 Rocket 3.9 21:14:12 37° SSW 21:16:22 88° WNW 21:21:41 10° NNE
Meteor 1-18 Rocket 4.5 21:16:41 30° SSW 21:19:43 71° WNW 21:25:39 10° N
Cosmos 1626 2.7 21:24:36 40° W 21:24:41 40° WNW 21:27:46 10° N
SL-8 R/B 3.9 21:23:58 10° WNW 21:28:43 68° N 21:32:42 15° E
Cosmos 2266 Rocket 4.5 21:27:55 36° SE 21:29:47 46° E 21:35:42 10° NNE
PSLV R/B 4.0 21:26:53 10° N 21:30:56 70° WNW 21:31:35 57° SW
Cosmos 1707 3.1 21:35:04 47° ENE 21:35:04 47° ENE 21:38:11 10° NNE
Spot 4 3.8 21:34:56 56° SSE 21:35:55 79° ENE 21:40:42 10° N
Cosmos 1833 Rocket 2.6 21:35:25 45° SSW 21:37:13 80° ESE 21:42:52 10° NNE
Cosmos 1441 Rocket 4.4 21:37:00 10° N 21:40:07 29° ENE 21:40:07 29° ENE
Cosmos 1842 3.1 21:41:17 78° NE 21:41:17 78° NE 21:44:47 10° N
Cosmos 2360 4.2 21:35:45 10° NNW 21:41:29 76° WSW 21:43:04 49° S
Cosmos 2082 Rocket 3.4 21:41:17 26° ESE 21:41:45 27° ESE 21:46:26 10° NE
Cosmos 1515 Rocket 3.7 21:51:40 53° WSW 21:52:19 61° W 21:56:37 10° N
Cosmos 2228 Rocket 4.4 21:54:19 26° E 21:54:35 26° E 21:58:20 10° NNE
KORONAS-FOTON 3.8 21:55:49 69° NW 21:55:49 69° NW 21:59:19 10° N
Cosmos 1300 4.4 21:54:00 10° NNE 21:56:46 21° ENE 21:56:50 21° ENE
Cosmos 1766 4.5 21:56:01 10° NNW 21:59:18 29° W 21:59:18 29° W
H-2A R/B 2.9 21:57:24 10° NNE 22:01:32 38° E 22:01:35 38° E
Cosmos 1417 Rocket 4.4 21:55:29 10° N 22:01:50 83° W 22:03:51 46° S
Cosmos 1733 Rocket 4.4 21:58:23 10° NNE 22:02:07 27° ENE 22:02:58 25° E
H-2A R/B 3.2 22:02:15 40° WSW 22:02:28 40° W 22:06:29 10° NNW
Lacrosse 4 Rocket 3.1 21:59:41 10° WNW 22:02:26 22° W 22:02:26 22° W
Cosmos 1869 Rocket 3.4 22:00:42 10° N 22:05:06 77° E 22:05:26 72° SE
Cosmos 1470 3.3 22:06:04 10° NNW 22:09:19 46° WNW 22:09:19 46° WNW
USA 59 Rocket 2.3 22:10:40 10° WNW 22:13:07 17° WSW 22:13:07 17° WSW
USA 267 3.4 22:07:48 10° ENE 22:14:09 51° SE 22:15:41 43° S
Orbus 7S? 4.0 22:13:47 26° W 22:15:34 46° NW 22:18:19 10° NE
SL-24 R/B 4.3 22:11:20 10° NNE 22:16:02 79° ESE 22:16:53 61° S
Cosmos 1400 Rocket 3.4 22:19:00 45° E 22:19:00 45° E 22:22:35 10° NNE
GP-B 3.2 22:14:48 10° N 22:19:11 60° E 22:19:30 58° ESE
Cosmos 1140 Rocket 3.9 22:19:18 39° SW 22:21:02 58° WNW 22:26:13 10° NNE
PSLV R/B 3.4 22:19:19 10° NNE 22:23:50 84° ESE 22:24:11 75° S
Cosmos 1346 Rocket 4.2 22:20:51 10° N 22:24:15 28° ENE 22:24:43 27° E
Cosmos 44 Rocket 3.5 22:20:28 10° NW 22:25:13 51° WSW 22:25:16 51° WSW
Meteor 1-12 Rocket 4.4 22:20:07 10° N 22:26:04 75° E 22:27:55 46° SSE
ALOS 2 3.1 22:26:21 44° WSW 22:26:31 45° W 22:30:46 10° NNW
S3M 4.2 22:23:31 10° NNW 22:29:49 62° W 22:31:50 43° SSW
NOSS 3-4 (A) 3.8 22:23:57 10° NW 22:30:54 78° SW 22:34:26 36° SSE
NOSS 3-4 (C) 3.8 22:24:03 10° NW 22:31:00 79° SW 22:34:35 36° SSE
BREEZE-M DEB (TANK) 3.7 22:31:06 34° W 22:32:36 74° NNW 22:41:28 10° ENE
Meteor 2-10 Rocket 3.7 22:28:22 10° N 22:34:13 80° E 22:35:52 49° SSE
Cosmos 1697 Rocket 3.2 22:29:27 10° NW 22:34:42 41° WSW 22:35:28 39° SW
Cosmos 724 4.5 22:32:09 33° SW 22:34:49 67° NW 22:40:40 10° NNE
Cosmos 1862 Rocket 3.8 22:38:11 51° ESE 22:38:24 52° E 22:42:37 10° NNE
Cosmos 2315 Rocket 4.0 22:35:25 10° NNW 22:41:43 73° W 22:43:41 46° SSW
Cosmos 1980 Rocket 2.1 22:37:35 10° NNW 22:43:17 74° WSW 22:44:37 53° S
Okean 1-7 4.3 22:43:15 28° ESE 22:43:43 29° E 22:47:27 10° NNE
Cosmos 1953 3.9 22:46:08 10° NNE 22:49:27 26° ENE 22:50:16 24° E
SL-14 R/B 3.2 22:49:57 81° N 22:49:57 81° N 22:53:38 10° N
Cosmos 1455 4.0 22:47:20 10° NNE 22:49:55 19° ENE 22:50:27 19° E
USA 234 3.7 22:43:34 10° ESE 22:50:01 63° NNE 22:56:29 10° NW
Cosmos 468 Rocket 4.0 22:45:20 10° NNW 22:50:39 79° ENE 22:52:06 49° SE
Cosmos 407 Rocket 4.2 22:49:43 34° WSW 22:51:33 48° WNW 22:56:39 10° NNE
Cosmos 676 Rocket 4.1 22:52:12 52° SSE 22:53:12 63° ESE 22:58:29 10° NNE
Cosmos 1763 Rocket 3.5 22:49:39 10° NNW 22:54:55 66° WSW 22:55:49 55° SSW
Lacrosse 5 rocket 2.0 22:51:23 10° NW 22:55:27 51° NNE 22:57:22 27° E
Cosmos 1954 Rocket 3.9 22:55:55 56° S 22:57:04 82° ESE 23:02:24 10° NNE
Meteor 1-23 Rocket 4.3 22:55:34 46° SW 22:57:08 66° WNW 23:02:46 10° N
Okean 2 4.2 22:59:06 36° E 22:59:17 36° E 23:02:57 10° NNE
Cosmos 1190 Rocket 4.1 22:59:44 48° SW 23:01:07 71° WNW 23:06:27 10° NNE
Cosmos 2369 3.7 22:55:38 10° NNW 23:01:21 69° WSW 23:02:44 50° S
SJ 16-02 3.8 23:00:36 10° ESE 23:01:27 11° E 23:02:19 10° E
Cosmos 1707 Rocket 3.5 23:01:55 65° SW 23:02:22 72° W 23:06:51 10° N
Cosmos 2251 Rocket 4.4 23:01:48 30° WSW 23:03:46 42° WNW 23:08:47 10° N
COSMOS 2406 3.2 23:02:30 48° SSW 23:04:13 87° WNW 23:10:02 10° NNE
Cosmos 540 Rocket 3.4 22:59:25 10° NNW 23:04:35 74° WSW 23:05:34 57° S
Meteor 2-20 4.4 22:58:55 10° NNW 23:05:04 73° W 23:07:01 45° SSW
Aureole 3 3.7 23:07:27 44° N 23:07:27 44° N 23:09:41 10° N
Cosmos 1244 Rocket 4.4 23:06:22 45° S 23:08:26 84° E 23:14:40 10° N
Cosmos 1758 3.9 23:05:36 10° NNW 23:08:57 44° WNW 23:08:57 44° WNW
Meteor 1-16 Rocket 4.3 23:05:19 10° N 23:11:03 79° ENE 23:13:11 41° SSE
SL-8 R/B 3.9 23:06:29 10° WNW 23:10:28 52° WSW 23:10:28 52° WSW
CZ-2D R/B 4.4 23:09:26 10° NE 23:12:35 15° E 23:15:34 10° ESE
SL-19 R/B 4.3 23:08:42 10° NNE 23:12:48 67° ESE 23:12:50 67° ESE
BREEZE-M DEB (TANK) 3.3 23:14:07 59° S 23:14:07 59° S 23:22:18 10° SE
SL-16 R/B 2.8 23:12:11 10° NNW 23:17:47 55° ENE 23:21:42 19° SE
Resurs 1-4 Rocket 4.2 23:14:24 10° NE 23:17:49 17° E 23:20:31 12° SE
Cosmos 2082 Rocket 2.7 23:23:06 32° WSW 23:25:30 52° WNW 23:31:06 10° NNE
ATLAS 2AS CENTAUR R/B 4.4 23:21:26 10° NNW 23:27:32 32° NNE 23:33:24 10° E
CZ-2C R/B 3.8 23:27:24 39° SW 23:29:07 59° WNW 23:46:26 10° N
Meteor 1-4 Rocket 3.0 23:31:33 46° NE 23:31:33 46° NE 23:33:51 10° NNE
Cosmos 1300 4.1 23:28:30 10° NNW 23:30:52 24° WNW 23:30:52 24° WNW
Cosmos 1908 Rocket 3.6 23:27:48 10° N 23:32:14 78° E 23:33:13 53° SSE
Cosmos 2228 Rocket 4.2 23:31:44 29° W 23:32:36 31° WNW 23:36:39 10° N
Cosmos 1315 Rocket 2.9 23:32:18 58° SE 23:32:40 61° E 23:36:32 10° NNE
Cosmos 2360 Rocket 3.4 23:30:16 10° NNW 23:35:36 39° NE 23:40:54 10° ESE
Nimbus 7 Rocket 4.4 23:30:46 10° NNE 23:36:48 81° WNW 23:39:13 39° SSW
H-2A R/B 3.7 23:33:29 10° N 23:37:02 24° WNW 23:38:23 21° W
Cosmos 1356 Rocket 4.1 23:38:18 37° W 23:38:48 38° WNW 23:42:42 10° N
Helios 1A Rocket 2.6 23:39:28 72° S 23:39:48 82° WSW 23:43:41 10° NNW
Cosmos 1733 Rocket 4.2 23:36:04 10° NNW 23:39:48 29° W 23:39:58 28° W
Cosmos 2237 4.1 23:38:14 10° NNW 23:43:59 86° WSW 23:46:56 30° SSE
Cosmos 1238 4.4 23:42:27 10° N 23:45:59 69° E 23:46:04 69° E
CZ-2C R/B 3.7 23:49:50 11° SE 23:54:29 39° ENE 23:59:18 10° N
